STARLINK-30289 (57653 NORAD) Tracking and Keplerian Element Data

This shows tracking and keplerian element data for the satellite.

Feedback or suggestion? Click here.




ElementValue
Catalog57653
NameSTARLINK-30289
Epoch Orbit2400
Epoch Day13.11362961
Epoch Year2024
RAAN35.6155
Inclination43.0017
Eccentricity9.59E-05
Argument of Perigee253.9309
Mean Anonmoly106.1428
Mean Motion15.02555765
Decay Rate0.00016363
L11 57653U 23122X 24013.11362961 .00016363 00000+0 12229-2 0 9991
L22 57653 43.0017 35.6155 0000959 253.9309 106.1428 15.02555765 24001



Live tracking and technical data element details for STARLINK-30289 (NORAD 57653). STARLINK-30289 can be tracked NOW for your location showing map with azimuth and elevation plus other details from your city location.







IsCatalogInMostPopularTable: catalog: 57653, numindb: 125
Update: records affected: 1



GetName: 57653 STARLINK-30289

Hit Count: updated at: Thu, 22 Feb 2024 00:43:40 GMT